Weather History for KJMS - January, 2013

Change the Weather History Date:

Tuesday, January 15, 2013

  Actual Average Record
Temperature  
Mean Temperature 15 °F 10 °F  
Max Temperature 37 °F 20 °F 45 °F (1914)
Min Temperature -8 °F 0 °F -35 °F (1917)
Degree Days  
Heating Degree Days 50 55  
Month to date heating degree days 758 823  
Since 1 July heating degree days 4406 4483  
Cooling Degree Days 0 0  
Month to date cooling degree days 0 0  
Year to date cooling degree days 0 0  
Moisture  
Dew Point 14 °F    
Average Humidity 77    
Maximum Humidity 92    
Minimum Humidity 61    
Precipitation  
Precipitation T in 0.01 in 0.23 in (1969)
Month to date precipitation T 0.24  
Year to date precipitation T 0.24  
Sea Level Pressure  
Sea Level Pressure 29.86 in    
Wind  
Wind Speed 13 mph (SW)    
Max Wind Speed 24 mph    
Max Gust Speed 32 mph    
Visibility 10 miles    
Events      
T = Trace of Precipitation, MM = Missing Value Source: NWS Daily Summary

Daily Weather History Graph

Daily Weather History Graph

Search for Another Location

Airport or City:

Trip Planner

Search our weather history database for the weather conditions in past years. The results will help you decide how hot, cold, wet, or windy it might be!

Date:

Astronomy

Jan. 15, 2013 Rise Set
Actual Time 8:15 AM CST 5:13 PM CST
Civil Twilight 7:41 AM CST 5:47 PM CST
Nautical Twilight 7:03 AM CST 6:25 PM CST
Astronomical Twilight 6:27 AM CST 7:01 PM CST
Moon 10:02 AM CST (1/15) 10:26 PM CST (1/15)
Length of Visible Light 10h 06m
Length of Day
8h 57m
Waxing Crescent, 19% of the Moon is Illuminated
Jan 15
Waxing Crescent
Jan 18
First Quarter
Jan 26
Full
Feb 3
Last Quarter
Feb 10
New

Hourly Weather History & Observations

Time (CST) Temp. Windchill Dew Point Humidity Pressure Visibility Wind Dir Wind Speed Gust Speed Precip Events Conditions
12:56 AM -4.0 °F -16.3 °F -9.0 °F 79% 30.19 in 10.0 mi South 5.8 mph - N/A   Overcast
1:56 AM -0.0 °F -9.9 °F -5.1 °F 79% 30.17 in 10.0 mi South 4.6 mph - N/A   Overcast
3:56 AM 8.1 °F -4.3 °F 3.0 °F 80% 30.10 in 10.0 mi South 8.1 mph - N/A   Overcast
4:56 AM 8.1 °F -4.3 °F 3.0 °F 80% 30.07 in 10.0 mi South 8.1 mph - N/A   Overcast
5:56 AM 8.1 °F -5.3 °F 3.0 °F 80% 30.05 in 10.0 mi South 9.2 mph - N/A   Mostly Cloudy
6:56 AM 7.0 °F -6.6 °F 1.9 °F 80% 30.04 in 10.0 mi South 9.2 mph - N/A   Mostly Cloudy
7:56 AM 10.0 °F -1.9 °F 3.0 °F 73% 30.04 in 10.0 mi SSW 8.1 mph - N/A   Overcast
8:56 AM 12.0 °F -0.4 °F 3.9 °F 70% 30.05 in 10.0 mi SW 9.2 mph - N/A   Overcast
9:56 AM 14.0 °F 0.5 °F 5.0 °F 67% 30.03 in 10.0 mi SW 11.5 mph - N/A   Overcast
10:56 AM 15.1 °F 1.8 °F 6.1 °F 68% 30.02 in 10.0 mi SW 11.5 mph - N/A   Mostly Cloudy
11:56 AM 17.1 °F 3.6 °F 7.0 °F 65% 29.99 in 10.0 mi SSW 12.7 mph - N/A   Clear
12:56 PM 19.0 °F 5.0 °F 8.1 °F 62% 29.96 in 10.0 mi SW 15.0 mph - N/A   Clear
1:56 PM 19.9 °F 7.9 °F 10.0 °F 65% 29.94 in 10.0 mi SW 11.5 mph - N/A   Clear
2:56 PM 21.0 °F 9.9 °F 10.9 °F 65% 29.90 in 10.0 mi SW 10.4 mph - N/A   Clear
3:56 PM 21.0 °F 8.6 °F 12.9 °F 71% 29.88 in 10.0 mi SSW 12.7 mph - N/A   Overcast
4:54 PM 21.2 °F 8.3 °F 15.8 °F 80% 29.75 in 10.0 mi SSW 13.8 mph - N/A   Overcast
5:56 PM 23.0 °F 9.2 °F 16.0 °F 74% 29.79 in 10.0 mi SSW 17.3 mph - N/A   Overcast
6:56 PM 25.0 °F 12.6 °F 19.9 °F 81% 29.74 in 9.0 mi SSW 15.0 mph - 0.00 in   Overcast
7:56 PM 27.0 °F 14.3 °F 23.0 °F 85% 29.70 in 9.0 mi SW 17.3 mph - 0.00 in   Overcast
8:24 PM 28.4 °F 15.8 °F 24.8 °F 86% 29.59 in 10.0 mi SW 18.4 mph 24.2 mph N/A   Overcast
8:37 PM 30.2 °F 18.1 °F 26.6 °F 86% 29.58 in 10.0 mi SW 18.4 mph - N/A   Overcast
8:56 PM 30.9 °F 19.1 °F 27.0 °F 85% 29.64 in 10.0 mi WSW 18.4 mph 25.3 mph N/A   Overcast
9:43 PM 33.8 °F 22.5 °F 30.2 °F 87% 29.56 in 10.0 mi West 19.6 mph 27.6 mph N/A   Overcast
9:56 PM 33.1 °F 22.6 °F 30.0 °F 89% 29.62 in 7.0 mi West 16.1 mph 25.3 mph N/A   Overcast
10:19 PM 35.6 °F 24.2 °F 33.8 °F 93% 29.54 in 6.0 mi West 21.9 mph 27.6 mph N/A   Overcast
10:56 PM 36.0 °F 24.2 °F 33.1 °F 89% 29.60 in 10.0 mi West 24.2 mph - N/A   Overcast
11:56 PM 37.0 °F 26.2 °F 32.0 °F 82% 29.61 in 10.0 mi WNW 21.9 mph - N/A   Overcast